Meteo pe oră la Bolshie Klyuchi

Astăzi, 19 Mai, Miercuri

Timp Temperatura Precipitaţii Vânt Presiune Umiditate
00:00 +18°C° 0 mm 4 m/s 752 mmHg 63%
01:00 +18°C° 0 mm 4 m/s 753 mmHg 65%
02:00 +17°C° 0 mm 4 m/s 753 mmHg 68%
03:00 +17°C° 0 mm 4 m/s 753 mmHg 70%
04:00 +17°C° 0 mm 4 m/s 753 mmHg 70%
05:00 +18°C° 0 mm 4 m/s 753 mmHg 71%
06:00 +18°C° 0 mm 4 m/s 753 mmHg 72%
07:00 +20°C° 0 mm 5 m/s 753 mmHg 66%
08:00 +21°C° 0 mm 5 m/s 753 mmHg 60%
09:00 +23°C° 0 mm 6 m/s 753 mmHg 55%
10:00 +23°C° 0 mm 6 m/s 753 mmHg 51%
11:00 +24°C° 0 mm 6 m/s 753 mmHg 48%
12:00 +26°C° 0 mm 6 m/s 753 mmHg 44%
13:00 +26°C° 0 mm 6 m/s 753 mmHg 44%
14:00 +27°C° 0 mm 6 m/s 753 mmHg 43%
15:00 +27°C° 0 mm 6 m/s 753 mmHg 43%
16:00 +26°C° 0 mm 5 m/s 753 mmHg 47%
17:00 +25°C° 0 mm 5 m/s 752 mmHg 52%
18:00 +25°C° 0 mm 4 m/s 752 mmHg 56%
19:00 +22°C° 0 mm 4 m/s 752 mmHg 60%
20:00 +21°C° 0 mm 4 m/s 752 mmHg 63%
21:00 +20°C° 0 mm 5 m/s 752 mmHg 67%
22:00 +19°C° 0 mm 4 m/s 752 mmHg 68%
23:00 +18°C° 0 mm 4 m/s 752 mmHg 69%

Mâine, 20 Mai, Joi

Timp Temperatura Precipitaţii Vânt Presiune Umiditate
00:00 +17°C° 0 mm 4 m/s 752 mmHg 70%
01:00 +17°C° 0 mm 4 m/s 752 mmHg 71%
02:00 +17°C° 0 mm 4 m/s 752 mmHg 73%
03:00 +15°C° 0 mm 4 m/s 752 mmHg 74%
04:00 +17°C° 0 mm 4 m/s 752 mmHg 72%
05:00 +18°C° 0 mm 4 m/s 752 mmHg 70%
06:00 +18°C° 0 mm 4 m/s 752 mmHg 68%
07:00 +20°C° 0 mm 5 m/s 752 mmHg 62%
08:00 +21°C° 0 mm 5 m/s 752 mmHg 57%
09:00 +23°C° 0 mm 6 m/s 752 mmHg 52%
10:00 +23°C° 0 mm 6 m/s 752 mmHg 49%
11:00 +24°C° 0 mm 7 m/s 752 mmHg 46%
12:00 +26°C° 0 mm 7 m/s 752 mmHg 43%
13:00 +26°C° 0 mm 7 m/s 752 mmHg 43%
14:00 +26°C° 0 mm 7 m/s 752 mmHg 42%
15:00 +26°C° 0 mm 6 m/s 751 mmHg 42%
16:00 +24°C° 0 mm 6 m/s 751 mmHg 45%
17:00 +23°C° 0 mm 5 m/s 751 mmHg 48%
18:00 +23°C° 0 mm 5 m/s 750 mmHg 51%
19:00 +21°C° 0 mm 5 m/s 750 mmHg 53%
20:00 +20°C° 0 mm 4 m/s 750 mmHg 56%
21:00 +18°C° 0 mm 4 m/s 750 mmHg 58%
22:00 +17°C° 0 mm 4 m/s 750 mmHg 60%
23:00 +17°C° 0 mm 3 m/s 750 mmHg 62%

Poimâine, 21 Mai, Vineri

Timp Temperatura Precipitaţii Vânt Presiune Umiditate
00:00 +16°C° 0 mm 3 m/s 750 mmHg 64%
01:00 +14°C° 0 mm 3 m/s 750 mmHg 66%
02:00 +14°C° 0 mm 3 m/s 750 mmHg 68%
03:00 +13°C° 0 mm 3 m/s 749 mmHg 70%
04:00 +14°C° 0 mm 3 m/s 749 mmHg 68%
05:00 +16°C° 0 mm 3 m/s 749 mmHg 66%
06:00 +17°C° 0 mm 4 m/s 749 mmHg 64%
07:00 +18°C° 0 mm 4 m/s 749 mmHg 60%
08:00 +20°C° 0 mm 4 m/s 749 mmHg 55%
09:00 +21°C° 0 mm 4 m/s 749 mmHg 50%
10:00 +22°C° 0 mm 4 m/s 749 mmHg 48%
11:00 +23°C° 0 mm 4 m/s 749 mmHg 46%
12:00 +25°C° 0 mm 4 m/s 748 mmHg 44%
13:00 +23°C° 0.1 mm 4 m/s 748 mmHg 49%
14:00 +23°C° 0.1 mm 4 m/s 748 mmHg 53%
15:00 +22°C° 0.1 mm 4 m/s 748 mmHg 58%
16:00 +21°C° 0.6 mm 4 m/s 748 mmHg 63%
17:00 +20°C° 0.6 mm 3 m/s 748 mmHg 69%
18:00 +20°C° 0.6 mm 3 m/s 748 mmHg 74%
19:00 +18°C° 0.1 mm 3 m/s 748 mmHg 79%
20:00 +17°C° 0.1 mm 3 m/s 749 mmHg 85%
21:00 +16°C° 0.1 mm 3 m/s 749 mmHg 90%
22:00 +14°C° 0 mm 3 m/s 749 mmHg 91%
23:00 +14°C° 0 mm 3 m/s 749 mmHg 91%

22 Mai, Sâmbătă

Timp Temperatura Precipitaţii Vânt Presiune Umiditate
00:00 +13°C° 0 mm 4 m/s 750 mmHg 92%
01:00 +12°C° 0 mm 3 m/s 750 mmHg 92%
02:00 +12°C° 0 mm 3 m/s 750 mmHg 93%
03:00 +11°C° 0 mm 3 m/s 751 mmHg 93%
04:00 +12°C° 0 mm 4 m/s 751 mmHg 91%
05:00 +12°C° 0 mm 4 m/s 751 mmHg 89%
06:00 +13°C° 0 mm 4 m/s 752 mmHg 87%
07:00 +14°C° 0 mm 4 m/s 752 mmHg 82%
08:00 +15°C° 0 mm 4 m/s 752 mmHg 76%
09:00 +18°C° 0 mm 4 m/s 753 mmHg 71%
10:00 +19°C° 0 mm 4 m/s 753 mmHg 67%
11:00 +19°C° 0 mm 4 m/s 753 mmHg 63%
12:00 +20°C° 0 mm 4 m/s 753 mmHg 59%
13:00 +20°C° 0 mm 4 m/s 754 mmHg 60%
14:00 +20°C° 0 mm 4 m/s 754 mmHg 61%
15:00 +20°C° 0 mm 4 m/s 754 mmHg 62%
16:00 +19°C° 0 mm 3 m/s 754 mmHg 63%
17:00 +19°C° 0 mm 3 m/s 754 mmHg 65%
18:00 +19°C° 0 mm 2 m/s 754 mmHg 67%
19:00 +18°C° 0 mm 2 m/s 754 mmHg 73%
20:00 +16°C° 0 mm 1 m/s 754 mmHg 78%
21:00 +15°C° 0 mm 1 m/s 754 mmHg 84%
22:00 +15°C° 1.1 mm 1 m/s 755 mmHg 88%
23:00 +14°C° 1.1 mm 1 m/s 755 mmHg 92%

23 Mai, Duminică

Timp Temperatura Precipitaţii Vânt Presiune Umiditate
00:00 +14°C° 1.1 mm 1 m/s 756 mmHg 96%
01:00 +14°C° 1.6 mm 1 m/s 756 mmHg 97%
02:00 +14°C° 1.6 mm 1 m/s 756 mmHg 97%
03:00 +14°C° 1.6 mm 1 m/s 756 mmHg 98%
04:00 +14°C° 2 mm 1 m/s 756 mmHg 97%
05:00 +14°C° 2 mm 2 m/s 756 mmHg 97%
06:00 +14°C° 2 mm 2 m/s 757 mmHg 96%
07:00 +14°C° 0.3 mm 3 m/s 757 mmHg 94%
08:00 +14°C° 0.3 mm 4 m/s 757 mmHg 92%
09:00 +14°C° 0.3 mm 4 m/s 756 mmHg 90%
10:00 +14°C° 1.6 mm 4 m/s 756 mmHg 91%
11:00 +14°C° 1.6 mm 4 m/s 756 mmHg 92%
12:00 +14°C° 1.6 mm 3 m/s 756 mmHg 93%
13:00 +14°C° 1 mm 3 m/s 756 mmHg 93%
14:00 +14°C° 1 mm 4 m/s 755 mmHg 93%
15:00 +15°C° 1 mm 4 m/s 755 mmHg 93%
16:00 +15°C° 0 mm 4 m/s 755 mmHg 92%
17:00 +17°C° 0 mm 4 m/s 754 mmHg 91%
18:00 +18°C° 0 mm 4 m/s 754 mmHg 90%
19:00 +18°C° 0 mm 4 m/s 753 mmHg 90%
20:00 +17°C° 0 mm 4 m/s 753 mmHg 91%
21:00 +16°C° 0 mm 5 m/s 753 mmHg 92%
22:00 +17°C° 0 mm 4 m/s 753 mmHg 91%
23:00 +17°C° 0 mm 4 m/s 752 mmHg 91%

24 Mai, Luni

Timp Temperatura Precipitaţii Vânt Presiune Umiditate
00:00 +17°C° 0 mm 4 m/s 752 mmHg 91%
01:00 +17°C° 0 mm 4 m/s 752 mmHg 90%
02:00 +17°C° 0 mm 4 m/s 751 mmHg 89%
03:00 +17°C° 0 mm 4 m/s 751 mmHg 88%
04:00 +17°C° 0 mm 4 m/s 751 mmHg 86%
05:00 +18°C° 0 mm 4 m/s 750 mmHg 83%
06:00 +19°C° 0 mm 4 m/s 750 mmHg 81%
07:00 +20°C° 0 mm 5 m/s 750 mmHg 77%
08:00 +21°C° 0 mm 5 m/s 749 mmHg 73%
09:00 +22°C° 0 mm 5 m/s 749 mmHg 69%
10:00 +24°C° 0 mm 6 m/s 749 mmHg 63%
11:00 +27°C° 0 mm 6 m/s 748 mmHg 58%
12:00 +29°C° 0 mm 6 m/s 748 mmHg 52%
13:00 +29°C° 0 mm 7 m/s 748 mmHg 51%
14:00 +29°C° 0 mm 7 m/s 747 mmHg 50%
15:00 +29°C° 0 mm 8 m/s 747 mmHg 49%
16:00 +29°C° 0 mm 6 m/s 747 mmHg 53%
17:00 +28°C° 0 mm 5 m/s 747 mmHg 57%
18:00 +27°C° 0 mm 4 m/s 747 mmHg 60%
19:00 +25°C° 0.1 mm 4 m/s 747 mmHg 65%
20:00 +24°C° 0.1 mm 3 m/s 748 mmHg 69%
21:00 +21°C° 0.1 mm 3 m/s 748 mmHg 73%
22:00 +21°C° 0.3 mm 3 m/s 748 mmHg 77%
23:00 +20°C° 0.3 mm 2 m/s 748 mmHg 81%
Arată mai mult

Formular de consimțământ

Meteoprog și furnizorii noștri de servicii pot stoca și accesa date personale, precum cookies, identificatori de dispozitiv sau alte tehnologii similare pe dispozitivul dumneavoastră și procesa astfel de date pentru a personaliza conținutul și reclamele, dar și pentru a oferi caracteristici de social media și pentru a analiza traficul.

  • Stocarea și/sau accesarea informațiilor pe dispozitivul dumneavoastră

    Cookies, identificatori de dispozitiv sau alte informații pot fi stocate sau accesate pe dispozitiv în scopurile indicate mai sus.

  • Reclame și conținut personalizat, evaluarea reclamelor și a conținutului, informații despre audiențe și dezvoltarea produselor

    Reclamele și conținutul pot fi personalizate pe baza unui profil. Pot fi adăugate date suplimentare pentru a personaliza mai bine reclamele și conținutul. Performanța reclamelor și conținutului poate fi măsurată. Pot fi obținute informații despre utilizatorii care au văzut reclamele și conținutul. Aceste date pot fi utilizate pentru a dezvolta sau îmbunătăți experiența utilizatorilor, sistemele și software-ul.

Dând clic pe ‘Sunt de acord’, permiteți utilizarea cookie-urilor menționate, a identificatorilor de dispozitiv, balizelor web sau altor tehnologii similare. Setările pot fi modificate din browser-ul dispozitivului dumneavoastră.

În anumite scopuri, interesele legitime pot prima asupra consimțământului. Puteți citi mai multe informații în acest sens în Politica privind Confidențialitatea Datelor și Cookie.